Regional Weather Roundup
Issued by NWS Little Rock, AR

Home | Current Version | Previous Version | Text Only | Print | Product List | Glossary On
Versions: 1 2 3 4 5 6 7 8 9 10 11 12 13 14 15 16 17 18 19 20 21 22 23 24 25 26 27 28 29 30 31 32
000
ASUS44 KLZK 192105
RWRLZK

WEATHER ROUNDUP FOR ARKANSAS
NATIONAL WEATHER SERVICE LITTLE ROCK AR
400 PM CDT THU OCT 19 2017

NOTE: "FAIR" INDICATES FEW OR NO CLOUDS BELOW 12,000 FEET WITH NO
SIGNIFICANT WEATHER AND/OR OBSTRUCTIONS TO VISIBILITY.

ARZ001-003-010-029-192200-
NORTHWEST ARKANSAS

CITY           SKY/WX    TMP DP  RH WIND       PRES   REMARKS
FAYETTEVILLE   CLOUDY    78  52  40 S8        30.15F
FORT SMITH     SUNNY     80  52  37 S5        30.13F
HARRISON       SUNNY     79  43  27 S8        30.17S
BENTONVILLE    SUNNY     74  50  42 S5        30.17F
ROGERS         SUNNY     76  51  41 SE6       30.16F
SILOAM SPGS    CLOUDY    77  52  41 VRB3      30.16S
HIGHFILL       MOSUNNY   75  53  46 S8        30.16S
SPRINGDALE     PTSUNNY   77  50  38 S5        30.17F
$$

ARZ004-005-016-192200-
NORTH CENTRAL ARKANSAS

CITY           SKY/WX    TMP DP  RH WIND       PRES   REMARKS
BATESVILLE     SUNNY     79  52  38 VRB5      30.17S
FLIPPIN        SUNNY     82  45  27 CALM      30.15F
MTN HOME       SUNNY     80  48  32 S7        30.15F
$$

ARZ040-041-192200-
WEST CENTRAL ARKANSAS

CITY           SKY/WX    TMP DP  RH WIND       PRES   REMARKS
MENA           CLOUDY    81  48  32 CALM      30.15F
$$

ARZ009-017-025-026-028-192200-
NORTHEAST ARKANSAS

CITY           SKY/WX    TMP DP  RH WIND       PRES   REMARKS
CORNING        FAIR      79  55  44 S7        30.17F
JONESBORO      SUNNY     79  52  38 S7        30.17F
NEWPORT        SUNNY     78  51  38 SE7       30.18S
WALNUT RIDGE   SUNNY     79  51  37 S7        30.17S
BLYTHEVILLE    SUNNY     77  52  41 S8        30.20S
NW BLYTHEVILLE SUNNY     77  48  36 SE9       30.19
$$

ARZ022-023-033-042-044-192200-
CENTRAL ARKANSAS

CITY           SKY/WX    TMP DP  RH WIND       PRES   REMARKS
LITTLE ROCK    PTSUNNY   79  52  38 S5        30.16F
N LITTLE ROCK    N/A     78  52  39 E6        30.18
JACKSONVILLE   MOSUNNY   79  53  39 E6        30.16S
SEARCY         MOSUNNY   80  53  39 S6        30.17F
HOT SPRINGS    PTSUNNY   80  52  37 VRB6      30.16F
RUSSELLVILLE   MOSUNNY   80  50  34 E5        30.14F
CLINTON        FAIR      79  50  36 VRB6      30.16S
$$

ARZ036-192200-
EAST ARKANSAS

CITY           SKY/WX    TMP DP  RH WIND       PRES   REMARKS
WEST MEMPHIS   SUNNY     76  51  41 SE6       30.18F
$$

ARZ050-053-066-070-073-192200-
SOUTHWEST ARKANSAS

CITY           SKY/WX    TMP DP  RH WIND       PRES   REMARKS
ARKADELPHIA    FAIR      80  56  43 S5        30.16F
CAMDEN         CLOUDY    81  48  32 VRB3      30.14F
TEXARKANA      PTSUNNY   79  49  34 SE7       30.14F
EL DORADO      CLOUDY    77  56  48 E6        30.16F
DE QUEEN       MOSUNNY   82  52  35 SE6       30.11F
$$

ARZ056-057-069-192200-
SOUTHEAST ARKANSAS

CITY           SKY/WX    TMP DP  RH WIND       PRES   REMARKS
PINE BLUFF     SUNNY     80  52  37 SE8       30.16F
STUTTGART      SUNNY     80  51  36 SE5       30.17F
MONTICELLO     CLOUDY    79  52  38 VRB5      30.17F

$$






USA.gov is the U.S. government's official web portal to all federal, state and local government web resources and services.